Terminal Aerodrome Forecast
Issued by NWS

Home | Current Version | Previous Version | Text Only | Print | Product List | Glossary On
Versions: 1 2 3 4 5 6 7 8 9 10 11 12 13 14 15 16 17 18 19 20 21 22 23 24 25 26 27 28 29 30 31 32 33 34 35
000
FTUS46 KLOX 290300 AAB
TAFLAX
TAF AMD
KLAX 290303Z 2903/3006 24008KT P6SM SCT007 SCT250
     FM290700 VRB03KT 5SM BR BKN007
     FM291000 VRB03KT 1 1/2SM BR OVC003
     FM291500 VRB03KT 2SM BR BKN006
     FM291700 23006KT 4SM HZ BKN250
     FM292000 25010KT P6SM SCT250
     FM300400 24006KT P6SM SCT250=

USA.gov is the U.S. government's official web portal to all federal, state and local government web resources and services.